Regional Weather Roundup
Issued by NWS

Home | Current Version | Previous Version | Text Only | Print | Product List | Glossary On
Versions: 1 2 3 4 5 6 7 8 9 10 11 12 13 14 15 16 17 18 19 20 21 22 23 24 25 26 27 28 29 30 31 32 33 34 35 36 37 38 39 40 41 42 43 44 45 46 47 48 49 50
000
ASUS43 KLMK 301002
RWRKY
KENTUCKY REGIONAL WEATHER ROUNDUP
NATIONAL WEATHER SERVICE LOUISVILLE KY
600 AM EDT TUE JUN 30 2015

NOTE "FAIR" INDICATES FEW OR NO CLOUDS BELOW 12,000 FEET
WITH NO SIGNIFICANT WEATHER AND/OR OBSTRUCTIONS TO VISIBILITY.

KYZ001>023-026-027-061>063-070>075-301100-
WESTERN AND SOUTH CENTRAL KENTUCKY

CITY           SKY/WX    TMP DP  RH WIND       PRES   REMARKS
PADUCAH        CLEAR     69  65  86 SW3       29.87R
HENDERSON      CLOUDY    66  63  88 CALM      29.85F
OWENSBORO      LGT RAIN  69  66  90 W5        29.87S
HOPKINSVILLE   CLEAR     68  67  94 SW3       29.89R
BOWLING GREEN  CLOUDY    68  65  90 CALM      29.91R
GLASGOW        NOT AVBL
$$

KYZ024-025-028>034-038-045-046-053-301100-
NORTH CENTRAL KENTUCKY

CITY           SKY/WX    TMP DP  RH WIND       PRES   REMARKS
LOUISVILLE/SDF MOCLDY    68  63  84 S6        29.87R
LOUISVILLE/LOU PTCLDY    67  63  87 CALM      29.87S
FORT KNOX      PTCLDY    64  62  95 SW2       29.87S
$$

KYZ035>037-039>044-047>052-055>060-089>105-301100-
NORTHEAST KENTUCKY

CITY           SKY/WX    TMP DP  RH WIND       PRES   REMARKS
LEXINGTON      PTCLDY    65  64  97 SW8       29.90R FOG
COVINGTON      PTCLDY    65  63  93 S8        29.85R
FRANKFORT      PTCLDY    65  63  93 SW6       29.88R
$$

KYZ054-064>069-076>088-106>120-301100-
SOUTHEAST KENTUCKY

CITY           SKY/WX    TMP DP  RH WIND       PRES   REMARKS
JACKSON        CLOUDY    66  63  90 VRB3      29.93R
LONDON         MOCLDY    67  61  81 S5        29.93R
SOMERSET       NOT AVBL
MIDDLESBORO    CLOUDY    66  64  93 CALM      29.96R
MONTICELLO     MOSUNNY   65  65 100 CALM      29.95R
$$



USA.gov is the U.S. government's official web portal to all federal, state and local government web resources and services.